Location: D.A.R.C. Observatory
(36.7133°N, 120.8553°W)
Time: 09:30:02
(UTC-08:00)

Daily predictions for brighter satellites

Satellite Brightness Start Highest point End
(mag) Time Altitude Azimuth Time Altitude Azimuth Time Altitude Azimuth
SL-16 R/B 2.5 18:08:52 10° N 18:14:22 48° ENE 18:19:48 10° SE
Cosmos 1340 4.2 18:14:14 10° NNE 18:16:41 16° ENE 18:19:07 10° ESE
Resurs 01 Rocket 3.2 18:14:15 10° ESE 18:16:50 15° ENE 18:19:25 10° NNE
TSX-5 4.4 18:14:37 10° SSE 18:17:21 25° ESE 18:20:02 10° NE
Cosmos 1992 Rocket 4.0 18:13:13 10° NNW 18:18:29 88° ENE 18:23:43 10° SSE
Cosmos 1782 Rocket 4.4 18:14:43 10° SSW 18:19:03 57° W 18:23:28 10° N
Nadezhda 1 Rocket 3.9 18:13:29 10° N 18:19:32 66° E 18:25:33 10° SSE
Cosmos 407 Rocket 3.5 18:14:41 10° S 18:19:49 63° ESE 18:25:04 10° NNE
DNEPR-1 R/B 4.0 18:16:00 10° NNW 18:19:59 38° NE 18:23:59 10° SE
Cosmos 676 Rocket 4.3 18:17:13 10° S 18:22:05 44° ESE 18:27:00 10° NNE
Cosmos 1238 Rocket 4.1 18:21:23 10° NE 18:22:31 12° ENE 18:23:38 10° E
Gbstr 26 Del rocket 3.9 18:20:13 10° S 18:23:26 24° SE 18:26:31 10° ENE
Tiangong 2 1.8 18:20:49 10° NW 18:23:44 38° NNE 18:26:33 11° E
DELTA 2 R/B (1) 3.8 18:18:16 10° WNW 18:23:52 66° N 18:29:25 10° E
Meteor 1-20 Rocket 4.3 18:19:33 10° S 18:25:20 73° E 18:31:11 10° NNE
Meteor 1-28 Rocket 3.4 18:22:27 10° N 18:26:15 76° WNW 18:30:03 10° SSW
BREEZE-M DEB (TANK) 3.8 18:18:16 10° NW 18:27:51 53° NNE 18:30:57 10° ESE
Cosmos 1300 Rocket 4.4 18:28:19 10° SSE 18:32:05 28° E 18:35:52 10° NNE
Cosmos 2322 Rocket 2.1 18:26:39 10° NNW 18:32:16 71° ENE 18:37:52 10° SSE
Cosmos 44 Rocket 4.0 18:28:24 10° NW 18:33:03 56° WSW 18:37:35 10° SSE
Cosmos 1536 4.4 18:30:51 10° SE 18:33:15 16° E 18:35:40 10° NE
COSMO-SKYMED 1 3.7 18:30:38 10° N 18:34:49 48° WNW 18:39:00 10° SSW
Okean 2 Rocket 4.3 18:33:41 10° SSW 18:37:59 47° W 18:42:17 10° N
Okean 1 3.3 18:37:10 10° N 18:41:11 61° E 18:45:12 10° SSE
Cosmos 1461 2.8 18:40:50 10° NNW 18:44:48 59° ENE 18:48:53 10° SE
Cosmos 1140 Rocket 3.8 18:40:01 10° S 18:44:49 42° ESE 18:49:39 10° NNE
ATLAS CENTAUR R/B 3.9 18:42:49 10° SSE 18:44:54 12° SE 18:45:58 11° ESE
FENGYUN 3A 3.9 18:41:19 10° SE 18:46:25 45° ENE 18:51:33 10° N
H-2A R/B 3.7 18:45:20 11° SE 18:48:09 24° ENE 18:51:11 10° NNE
Cosmos 1709 Rocket 3.9 18:44:36 10° S 18:50:49 72° E 18:56:58 10° N
Cosmos 44 3.8 18:48:15 10° NW 18:52:32 54° WSW 18:56:42 10° SSE
Spot 2 Rocket 3.9 18:50:34 10° SE 18:55:15 41° ENE 18:59:59 10° N
Cosmos 2151 Rocket 4.0 18:52:11 10° SSW 18:56:38 66° W 19:01:09 10° N
Cosmos 614 Rocket 4.3 18:52:17 10° S 18:57:01 40° ESE 19:01:45 10° NNE
Cosmos 1812 3.9 18:53:45 10° NNW 18:57:28 46° W 19:01:09 10° SSW
Cosmos 2292 Rocket 4.2 18:53:11 10° S 18:57:53 86° W 19:04:18 10° N
COSMOS 2428 3.9 18:53:43 10° N 18:57:54 21° NE 18:59:03 19° ENE
Helios 1A 4.2 18:58:09 21° ENE 18:58:09 21° ENE 19:01:18 10° NNE
Meteor 2-4 Rocket 4.3 18:54:27 10° N 18:59:27 33° ENE 19:04:18 10° SE
Okean 1 Rocket 3.3 18:58:43 10° SSE 19:03:02 49° E 19:07:21 10° NNE
HJ-1C 3.3 18:59:45 10° SSE 19:03:05 62° ENE 19:06:26 10° N
Cosmos 1850 Rocket 4.4 18:59:01 10° S 19:03:54 40° ESE 19:08:51 10° NNE
GPS 2-04 Rocket1 4.1 19:00:17 10° SSW 19:03:55 27° SSE 19:05:18 22° SE
Abrixas rocket 4.1 19:04:00 10° S 19:05:50 18° SSE 19:05:50 18° SSE
Meteor 1-11 Rocket 3.7 19:07:08 10° S 19:12:51 76° E 19:18:44 10° NNE
Cosmos 1954 Rocket 4.2 19:08:05 10° SSW 19:13:15 75° WNW 19:18:29 10° NNE
GEOS 3 Rocket 4.0 19:11:13 10° NNE 19:16:24 64° NW 19:21:37 10° SW
Cosmos 2219 3.4 19:13:41 10° S 19:19:07 45° ESE 19:23:09 18° NE
Cosmos 1633 3.2 19:16:02 10° SSW 19:19:39 59° W 19:23:18 10° N
Helios 1B rocket 2.7 19:20:32 43° E 19:20:42 43° E 19:24:39 10° S
Cosmos 1602 4.1 19:17:15 10° SSW 19:21:05 64° W 19:24:57 10° N
Cosmos 2360 Rocket 2.1 19:18:45 10° NNW 19:24:25 73° ENE 19:28:57 16° SSE
Okean 1-7 Rocket 3.7 19:20:01 10° N 19:24:26 51° E 19:25:47 37° SE
Cosmos 2219 Rocket 3.7 19:23:11 10° N 19:25:54 18° NE 19:25:54 18° NE
OAO 3 Copernicus 4.5 19:24:17 10° W 19:29:18 65° S 19:30:52 42° SE
Cosmos 1025 Rocket 3.8 19:29:34 10° N 19:32:29 35° NNE 19:32:29 35° NNE
ALOS 3.0 19:30:46 10° S 19:35:19 54° W 19:39:55 10° NNW
Spot 1 4.1 19:37:58 56° NNE 19:37:58 56° NNE 19:41:26 10° N
BREEZE-M DEB (TANK) 2.8 19:35:31 10° WSW 19:39:11 57° WNW 19:39:11 57° WNW
Resurs 01 Rocket 2.7 19:48:44 10° S 19:52:55 43° W 19:57:08 10° NNW
Cosmos 2333 Rocket 3.8 19:48:35 10° N 19:51:05 20° NNE 19:51:05 20° NNE
Cosmos 1741 Rocket 4.2 19:48:35 10° SSW 19:53:47 70° WNW 19:59:01 10° NNE
BREEZE-M DEB (TANK) 4.3 19:52:16 10° NW 19:56:04 51° NE 19:56:45 49° ENE
H-2A R/B (2) 3.6 19:55:03 10° SW 19:55:29 13° SSW 19:55:29 13° SSW
Tiangong 2 3.7 19:57:19 10° WNW 19:58:33 20° W 19:58:33 20° W
Cosmos 1610 Rocket 4.3 20:02:58 10° S 20:09:13 87° E 20:15:26 10° N
Cosmos 1570 Rocket 4.1 20:04:33 10° NNW 20:09:45 73° WSW 20:09:45 73° WSW
Gbstr 26 Del rocket 4.5 20:06:39 10° W 20:09:10 29° WNW 20:09:10 29° WNW
DELTA 2 R/B (1) 3.6 20:04:51 10° WNW 20:10:13 71° SW 20:10:13 71° SW
COSMOS 2428 3.7 20:36:57 10° NNW 20:41:08 44° WNW 20:41:08 44° WNW
Cosmos 2237 Rocket 4.4 20:46:19 10° NNW 20:47:35 17° N 20:47:35 17° N
Cosmos 2219 Rocket 4.3 21:06:00 10° NNW 21:07:40 20° NW 21:07:40 20° NW
